{"data":{"norad_id":52564,"intl_designator":"2022-051AH","name":"STARLINK-3959","alt_names":[],"object_type":"PAYLOAD","status":"ACTIVE","operator":null,"country":"US","launch_date":"2022-05-13","launch_site_code":"AFWTR","launch_vehicle":null,"mission":null,"orbit_class":"UNKNOWN","rcs_meters":null,"size_class":null,"mass_kg":null,"dimensions":null,"purposes":["comms"],"wikipedia_slug":null,"has_3d_model":false,"image_url":null,"decayed_at":null,"tle_current":{"epoch":"2026-09-19T19:55:17.681664Z","epoch_age_seconds":121199,"freshness":"FRESH","line1":"1 52564U 22051AH  26262.83006576  .00000196  00000+0  18086-4 0  9997","line2":"2 52564  53.1614 337.6014 0001384  77.9258 282.1898 15.31692129240746","mean_motion":15.31692129,"eccentricity":0.0001384,"inclination_deg":53.1614,"raan_deg":337.6014,"arg_perigee_deg":77.9258,"mean_anomaly_deg":282.1898,"bstar":1.8086e-5,"rev_number":24074,"period_min":94.013671072406,"perigee_km":469.81557054411,"apogee_km":471.71134619099,"semimajor_km":6848.9004583675,"source":"CELESTRAK","updated_at":"2026-09-20T09:00:40.063383Z"}}}